When you browse on this site, cookies collect data to enhance your experience and personalize the content and advertising you see.
Visit our Privacy Policy to learn more. By continuing to use the site, you agree to this use of cookies and data.
  • In Romania
  • List of Countries
  • For 7 days
  • Water Temperature
  • Weather Map
  • Weather Widgets
  • user-avatar
    Login

    Hourly Weather Świebodzin

    Today, 25 August, Sunday

    Time Temperature Precipitation Wind Pressure Humidity
    00:00 +21°C° 0 mm 3 mps 760 mmHg 59%
    01:00 +20°C° 0 mm 3 mps 760 mmHg 59%
    02:00 +20°C° 0 mm 3 mps 760 mmHg 61%
    03:00 +20°C° 0 mm 3 mps 760 mmHg 63%
    04:00 +19°C° 0 mm 3 mps 759 mmHg 64%
    05:00 +20°C° 0 mm 3 mps 759 mmHg 65%
    06:00 +20°C° 0 mm 4 mps 759 mmHg 66%
    07:00 +21°C° 0 mm 4 mps 759 mmHg 67%
    08:00 +23°C° 0 mm 4 mps 759 mmHg 62%
    09:00 +25°C° 0 mm 4 mps 760 mmHg 58%
    10:00 +27°C° 0 mm 5 mps 760 mmHg 53%
    11:00 +28°C° 0 mm 5 mps 759 mmHg 50%
    12:00 +29°C° 0 mm 5 mps 759 mmHg 48%
    13:00 +30°C° 0 mm 5 mps 759 mmHg 45%
    14:00 +30°C° 0 mm 5 mps 759 mmHg 45%
    15:00 +30°C° 0 mm 4 mps 759 mmHg 46%
    16:00 +30°C° 0 mm 4 mps 758 mmHg 46%
    17:00 +28°C° 0 mm 4 mps 758 mmHg 51%
    18:00 +27°C° 0 mm 3 mps 758 mmHg 56%
    19:00 +25°C° 0 mm 3 mps 758 mmHg 61%
    20:00 +25°C° 0 mm 3 mps 758 mmHg 62%
    21:00 +24°C° 0 mm 3 mps 759 mmHg 63%
    22:00 +22°C° 0 mm 3 mps 759 mmHg 64%
    23:00 +22°C° 0 mm 3 mps 759 mmHg 66%

    Tomorrow, 26 August, Monday

    Time Temperature Precipitation Wind Pressure Humidity
    00:00 +21°C° 0 mm 3 mps 759 mmHg 68%
    01:00 +21°C° 0 mm 3 mps 759 mmHg 70%
    02:00 +21°C° 0 mm 3 mps 759 mmHg 72%
    03:00 +20°C° 0 mm 2 mps 758 mmHg 75%
    04:00 +20°C° 0 mm 2 mps 758 mmHg 78%
    05:00 +21°C° 0 mm 3 mps 758 mmHg 77%
    06:00 +21°C° 0 mm 3 mps 758 mmHg 76%
    07:00 +21°C° 0 mm 3 mps 758 mmHg 75%
    08:00 +24°C° 0 mm 3 mps 758 mmHg 71%
    09:00 +26°C° 0 mm 3 mps 758 mmHg 66%
    10:00 +27°C° 0 mm 3 mps 758 mmHg 61%
    11:00 +28°C° 0 mm 3 mps 758 mmHg 57%
    12:00 +29°C° 0 mm 3 mps 758 mmHg 53%
    13:00 +30°C° 0 mm 3 mps 757 mmHg 49%
    14:00 +31°C° 0 mm 3 mps 757 mmHg 48%
    15:00 +31°C° 0 mm 3 mps 757 mmHg 47%
    16:00 +31°C° 0 mm 3 mps 757 mmHg 46%
    17:00 +29°C° 0 mm 3 mps 757 mmHg 52%
    18:00 +28°C° 0 mm 3 mps 757 mmHg 58%
    19:00 +26°C° 0 mm 3 mps 757 mmHg 64%
    20:00 +26°C° 0 mm 3 mps 757 mmHg 66%
    21:00 +25°C° 0 mm 3 mps 757 mmHg 68%
    22:00 +24°C° 0 mm 3 mps 757 mmHg 71%
    23:00 +24°C° 0 mm 2 mps 757 mmHg 72%

    Day after tomorrow, 27 August, Tuesday

    Time Temperature Precipitation Wind Pressure Humidity
    00:00 +23°C° 0 mm 2 mps 757 mmHg 74%
    01:00 +23°C° 0 mm 2 mps 757 mmHg 76%
    02:00 +21°C° 0 mm 2 mps 757 mmHg 78%
    03:00 +21°C° 0 mm 2 mps 756 mmHg 79%
    04:00 +21°C° 0 mm 2 mps 756 mmHg 81%
    05:00 +21°C° 0 mm 2 mps 756 mmHg 79%
    06:00 +23°C° 0 mm 2 mps 756 mmHg 77%
    07:00 +24°C° 0 mm 2 mps 757 mmHg 75%
    08:00 +26°C° 0 mm 3 mps 757 mmHg 68%
    09:00 +28°C° 0 mm 3 mps 757 mmHg 62%
    10:00 +30°C° 0 mm 3 mps 757 mmHg 55%
    11:00 +31°C° 0 mm 3 mps 757 mmHg 50%
    12:00 +34°C° 0 mm 3 mps 756 mmHg 44%
    13:00 +35°C° 0 mm 3 mps 756 mmHg 39%
    14:00 +35°C° 0 mm 3 mps 756 mmHg 39%
    15:00 +35°C° 0 mm 3 mps 756 mmHg 38%
    16:00 +35°C° 0 mm 3 mps 755 mmHg 38%
    17:00 +33°C° 0.1 mm 3 mps 755 mmHg 43%
    18:00 +30°C° 0.1 mm 3 mps 755 mmHg 49%
    19:00 +29°C° 0.1 mm 2 mps 755 mmHg 54%
    20:00 +27°C° 2.6 mm 2 mps 755 mmHg 63%
    21:00 +26°C° 2.6 mm 2 mps 755 mmHg 72%
    22:00 +24°C° 2.6 mm 2 mps 756 mmHg 82%
    23:00 +24°C° 0.1 mm 2 mps 756 mmHg 82%

    28 August, Wednesday

    Time Temperature Precipitation Wind Pressure Humidity
    00:00 +24°C° 0.1 mm 2 mps 755 mmHg 83%
    01:00 +24°C° 0.1 mm 2 mps 755 mmHg 84%
    02:00 +23°C° 0 mm 2 mps 755 mmHg 84%
    03:00 +23°C° 0 mm 2 mps 755 mmHg 85%
    04:00 +23°C° 0 mm 2 mps 755 mmHg 86%
    05:00 +23°C° 0 mm 2 mps 755 mmHg 83%
    06:00 +24°C° 0 mm 1 mps 755 mmHg 80%
    07:00 +25°C° 0 mm 1 mps 755 mmHg 78%
    08:00 +27°C° 0 mm 2 mps 755 mmHg 70%
    09:00 +29°C° 0 mm 2 mps 755 mmHg 62%
    10:00 +31°C° 0 mm 2 mps 755 mmHg 54%
    11:00 +33°C° 0 mm 3 mps 754 mmHg 50%
    12:00 +34°C° 0 mm 3 mps 754 mmHg 45%
    13:00 +35°C° 0 mm 3 mps 754 mmHg 41%
    14:00 +35°C° 0 mm 3 mps 753 mmHg 40%
    15:00 +35°C° 0 mm 3 mps 753 mmHg 39%
    16:00 +35°C° 0 mm 3 mps 753 mmHg 39%
    17:00 +32°C° 0 mm 2 mps 753 mmHg 44%
    18:00 +30°C° 0 mm 2 mps 752 mmHg 50%
    19:00 +29°C° 0 mm 2 mps 752 mmHg 55%
    20:00 +28°C° 0.1 mm 2 mps 752 mmHg 59%
    21:00 +27°C° 0.1 mm 2 mps 753 mmHg 62%
    22:00 +26°C° 0.1 mm 2 mps 753 mmHg 66%
    23:00 +25°C° 0.2 mm 2 mps 753 mmHg 70%

    29 August, Thursday

    Time Temperature Precipitation Wind Pressure Humidity
    00:00 +25°C° 0.2 mm 2 mps 752 mmHg 74%
    01:00 +24°C° 0.2 mm 2 mps 752 mmHg 77%
    02:00 +23°C° 0.1 mm 2 mps 752 mmHg 79%
    03:00 +23°C° 0.1 mm 2 mps 752 mmHg 81%
    04:00 +21°C° 0.1 mm 2 mps 752 mmHg 82%
    05:00 +23°C° 0 mm 2 mps 752 mmHg 80%
    06:00 +24°C° 0 mm 2 mps 752 mmHg 78%
    07:00 +24°C° 0 mm 2 mps 752 mmHg 76%
    08:00 +26°C° 0 mm 2 mps 752 mmHg 68%
    09:00 +28°C° 0 mm 2 mps 752 mmHg 60%
    10:00 +31°C° 0 mm 2 mps 752 mmHg 52%
    11:00 +32°C° 0 mm 2 mps 752 mmHg 46%
    12:00 +34°C° 0 mm 2 mps 752 mmHg 41%
    13:00 +35°C° 0 mm 2 mps 752 mmHg 36%
    14:00 +35°C° 0 mm 2 mps 752 mmHg 36%
    15:00 +35°C° 0 mm 2 mps 752 mmHg 35%
    16:00 +35°C° 0 mm 2 mps 751 mmHg 35%
    17:00 +32°C° 0.2 mm 1 mps 752 mmHg 41%
    18:00 +30°C° 0.2 mm 1 mps 752 mmHg 47%
    19:00 +28°C° 0.2 mm 1 mps 752 mmHg 53%
    20:00 +27°C° 0.6 mm 2 mps 752 mmHg 59%
    21:00 +26°C° 0.6 mm 3 mps 753 mmHg 66%
    22:00 +24°C° 0.6 mm 3 mps 753 mmHg 73%
    23:00 +24°C° 0.1 mm 3 mps 753 mmHg 78%

    30 August, Friday

    Time Temperature Precipitation Wind Pressure Humidity
    00:00 +22°C° 0.1 mm 3 mps 754 mmHg 84%
    01:00 +21°C° 0.1 mm 3 mps 754 mmHg 89%
    02:00 +21°C° 0.3 mm 3 mps 754 mmHg 90%
    03:00 +21°C° 0.3 mm 3 mps 754 mmHg 90%
    04:00 +20°C° 0.3 mm 3 mps 755 mmHg 90%
    05:00 +20°C° 0.2 mm 3 mps 755 mmHg 89%
    06:00 +21°C° 0.2 mm 3 mps 755 mmHg 88%
    07:00 +21°C° 0.2 mm 3 mps 756 mmHg 87%
    08:00 +21°C° 0 mm 3 mps 756 mmHg 85%
    09:00 +22°C° 0 mm 3 mps 757 mmHg 83%
    10:00 +22°C° 0 mm 4 mps 757 mmHg 81%
    11:00 +22°C° 0 mm 3 mps 757 mmHg 78%
    12:00 +22°C° 0 mm 3 mps 758 mmHg 75%
    13:00 +22°C° 0 mm 3 mps 758 mmHg 73%
    14:00 +24°C° 0 mm 3 mps 758 mmHg 66%
    15:00 +25°C° 0 mm 2 mps 758 mmHg 59%
    16:00 +26°C° 0 mm 2 mps 757 mmHg 52%
    17:00 +24°C° 0 mm 2 mps 758 mmHg 54%
    18:00 +23°C° 0 mm 2 mps 758 mmHg 57%
    19:00 +22°C° 0 mm 1 mps 758 mmHg 59%
    20:00 +20°C° 0 mm 2 mps 758 mmHg 63%
    21:00 +19°C° 0 mm 2 mps 758 mmHg 67%
    22:00 +18°C° 0 mm 2 mps 758 mmHg 71%
    23:00 +17°C° 0 mm 2 mps 758 mmHg 75%
    Show more